Regional Weather Roundup
Issued by NWS

Home | Current Version | Previous Version | Graphics & Text | Print | Product List | Glossary On
Versions: 1 2 3 4 5 6 7 8 9 10 11 12 13 14 15 16 17 18 19 20 21 22 23 24 25 26 27 28 29 30 31 32 33 34 35 36 37 38 39 40 41 42 43 44 45 46 47 48 49 50
924
ASUS43 KMKX 171511
RWRWI

WISCONSIN REGIONAL WEATHER ROUNDUP
NATIONAL WEATHER SERVICE MILWAUKEE/SULLIVAN WI
1000 AM CDT TUE OCT 17 2017

NOTE: "FAIR" INDICATES FEW OR NO CLOUDS BELOW 12,000 FEET WITH NO
SIGNIFICANT WEATHER AND/OR OBSTRUCTIONS TO VISIBILITY.

WIZ001-002-006>008-014>016-023>028-171600-
NORTHWEST WISCONSIN

CITY           SKY/WX    TMP DP  RH WIND       PRES   REMARKS
SUPERIOR ARPT  MOSUNNY   52  42  67 W8        29.99R
ASHLAND        SUNNY     55  41  59 SW10      29.99R
HAYWARD        SUNNY     52  40  63 SW6       30.01S
SIREN          SUNNY     52  41  67 CALM      30.02S
CUMBERLAND     SUNNY     50  41  71 CALM      30.03R
RICE LAKE      SUNNY     51  41  68 CALM      30.05R
CHETEK         SUNNY     49  42  75 E3        30.04R
LADYSMITH      SUNNY     52  43  71 S5        30.05S
EAU CLAIRE     SUNNY     53  43  68 SW5       30.04R
MENOMONIE      SUNNY     54  44  67 SW3       30.04S
NEW RICHMOND   SUNNY     54  41  62 SW3       30.02S
OSCEOLA        SUNNY     52  43  71 CALM      30.05R
$$

WIZ003>005-009-010-017-018-171600-
NORTH CENTRAL WISCONSIN

CITY           SKY/WX    TMP DP  RH WIND       PRES   REMARKS
MANITOWISH WTR MOSUNNY   51  40  67 SW7       30.01S
ARBOR VITAE    CLOUDY    52  43  71 CALM      30.02R
WOODRUFF       CLOUDY    52  43  71 CALM      30.02R
RHINELANDER    SUNNY     54  41  61 W5        30.04R
EAGLE RIVER    SUNNY     51  38  61 W5        30.02R
LAND O LAKES   SUNNY     53  40  60 W3        30.02S
PHILLIPS       SUNNY     50  41  72 CALM      30.03R
TOMAHAWK       SUNNY     51  41  67 CALM      30.04S
MEDFORD        SUNNY     54  41  62 W8        30.04R
MERRILL        SUNNY     51  42  69 CALM      30.05R
$$

WIZ029-030-035-036-043>047-171600-
CENTRAL WISCONSIN

CITY           SKY/WX    TMP DP  RH WIND       PRES   REMARKS
WAUSAU         SUNNY     52  41  66 S5        30.03S
MOSINEE        MOSUNNY   54  45  71 SW7       30.06R
MARSHFIELD     SUNNY     55  41  59 W9        30.05R
STEVENS POINT  SUNNY     52  41  66 W5        30.07R
WAUPACA        SUNNY     59  44  57 W8        30.06S
WAUTOMA        SUNNY     56  44  64 W10       30.08S
WISC RAPIDS    SUNNY     55  43  63 SW7       30.07S
CAMP DOUGLAS   NOT AVBL
$$

WIZ011>013-019>022-031-037>040-048>050-171600-
NORTHEAST WISCONSIN

CITY           SKY/WX    TMP DP  RH WIND       PRES   REMARKS
ANTIGO         SUNNY     51  41  68 W8        30.05R
SHAWANO        SUNNY     56  43  60 W6        30.04S
OCONTO         SUNNY     55  41  60 W9        30.03S
STURGEON BAY   SUNNY     56  42  59 W15G21    30.03S
GREEN BAY      SUNNY     57  44  62 SW12      30.06R
MANITOWOC      SUNNY     58  42  55 W15G21    30.06R
APPLETON       SUNNY     55  39  54 SW10      30.05R
CLINTONVILLE   SUNNY     57  43  58 W5        30.05S
OSHKOSH        SUNNY     57  44  62 SW5       30.07R
$$

WIZ032>034-041-042-053>061-171600-
SOUTHWEST WISCONSIN

CITY           SKY/WX    TMP DP  RH WIND       PRES   REMARKS
LA CROSSE      SUNNY     56  43  61 S9        30.08R
SPARTA         SUNNY     56  44  62 W5        30.08R
VIROQUA        SUNNY     55  43  64 SW9       30.08S
BOSCOBEL       SUNNY     59  43  55 SW9       30.11F
PRAIRIE DU CHI SUNNY     57  41  55 S7        30.11S
PLATTEVILLE    SUNNY     57  43  60 SW17      30.15S
$$

WIZ056-057-062-063-064-067-068-171600-
SOUTH CENTRAL WISCONSIN

CITY           SKY/WX    TMP DP  RH WIND       PRES   REMARKS
REEDSBURG      SUNNY     56  42  60 SW12      30.09S
BARABOO/DELLS  SUNNY     56  41  56 SW15      30.09R
LONE ROCK      SUNNY     58  45  62 VRB7      30.11S
MINERAL POINT  SUNNY     59  43  55 SW14G21   30.12F
MADISON        MOSUNNY   57  43  59 SW8G16    30.11S
MIDDLETON      SUNNY     59  42  54 SW14      30.11S
WATERTOWN      SUNNY     57  43  59 SW14G20   30.11S
MONROE         SUNNY     55  41  58 SW21G28   30.14F
JANESVILLE     SUNNY     59  43  55 SW12      30.14F
$$

WIZ051-052-058>065-066-070>072-171600-
SOUTHEAST WISCONSIN

CITY           SKY/WX    TMP DP  RH WIND       PRES   REMARKS
MILWAUKEE      MOSUNNY   60  41  49 W15G23    30.11F
WAUKESHA       SUNNY     57  39  51 SW13G20   30.13S
MILWAUKEE/TIMM SUNNY     59  37  44 W20       30.11S
RACINE         SUNNY     60  42  51 SW10G21   30.14S
BURLINGTON     SUNNY     58  44  58 SW14G20   30.14S
KENOSHA        SUNNY     60  41  49 SW17G25   30.14S
FOND DU LAC    SUNNY     57  41  55 SW7G17    30.09R
SHEBOYGAN      SUNNY     58  44  60 W10G21    30.07S
WEST BEND      SUNNY     57  39  51 W12G20    30.09S
JUNEAU         SUNNY     55  42  61 SW13      30.11S
$$

LSZ147-162-171600-
LAKE SUPERIOR

STATION/POSITION TIME  TEMP    WIND        PRES    WAVE
                       AIR SEA DIR/SP/G            HT/PER
                 (UTC) (F)     (DEG/KT/KT) (MB)    (FT/S)
W MID LAKE BUOY  1450   54 53              1014.6R   2/ 4
DEVILS ISLAND    1500   53     240/ 13/ 14 1015.3R
SAXON HARBOR     1430   56     200/  8/ 10 1014.6S
$$

LMZ867-665-643>646-171600-
LAKE MICHIGAN

STATION/POSITION TIME  TEMP    WIND        PRES    WAVE
                       AIR SEA DIR/SP/G            HT/PER
                 (UTC) (F)     (DEG/KT/KT) (MB)    (FT/S)
S GREEN BAY BUOY 1500   54 58  220/ 14/ 17 1016.6
N MID LAKE BUOY  1450   56 59  250/ 16/ 17 1016.3R   5/ 6
NORTHPORT PIER   1440   55     250/  6/ 14 1015.6S
KEWAUNEE LAKESHO 1448   58     270/ 13/ 20 1016.2R
SHEBOYGAN LAKESH 1500   58     260/ 22/ 25 1017.8R
PORT WASHINGTON  1440   59     260/ 12/ 24 1019.3S
MILWAUKEE LAKESH 1450   59     250/ 14/ 19   N/A
S MID LAKE BUOY  1450   59 61  260/ 23/ 25 1020.5R   5/ 6
KENOSHA   LAKESH 1500   60     230/ 16/ 24 1020.3
$$

TC  - TEMPERATURE IN CELSIUS
VSB - VISIBILITY IN STATUTE MILES
WCI - WIND CHILL INDEX
HX  - HEAT INDEX





USA.gov is the U.S. government's official web portal to all federal, state and local government web resources and services.